K7TUS-6 Weather Reports


Display with metric or nautical units.
time (UTC)temp
F
wind
direction
speed
MPH
gust
MPH
rain 1hr
in
rain 24hr
in
rain mn
in
humidity
%
barometer
mb
20260509160005 63 331 6.0 8.0 0.00 0.00 0.00 1 988.8
20260509155505 61 323 7.0 11.0 0.00 0.00 0.00 1 987.8
20260509154504 62 335 6.0 7.0 0.00 0.00 0.00 1 988.0
20260509154003 62 337 5.0 7.0 0.00 0.00 0.00 1 987.3
20260509153003 60 348 9.0 11.0 0.00 0.00 0.00 1 987.3
20260509152508 59 337 9.0 14.0 0.00 0.00 0.00 1 987.5
20260509152008 60 330 9.0 12.0 0.00 0.00 0.00 1 988.0
20260509151507 60 323 7.0 9.0 0.00 0.00 0.00 100 988.9
20260509151006 59 342 6.0 6.0 0.00 0.00 0.00 1 988.4
20260509150506 59 325 7.0 11.0 0.00 0.00 0.00 1 988.6
20260509150005 59 324 7.0 9.0 0.00 0.00 0.00 1 988.5
20260509145504 59 326 7.0 10.0 0.00 0.00 0.00 1 988.3
20260509145003 59 325 7.0 9.0 0.00 0.00 0.00 1 988.8
20260509144503 59 326 10.0 13.0 0.00 0.00 0.00 1 988.4
20260509144008 59 327 7.0 9.0 0.00 0.00 0.00 100 987.8
20260509143507 58 320 10.0 12.0 0.00 0.00 0.00 1 987.8
20260509143007 58 326 7.0 10.0 0.00 0.00 0.00 100 987.8
20260509142506 58 319 7.0 13.0 0.00 0.00 0.00 1 987.1
20260509142006 57 323 9.0 14.0 0.00 0.00 0.00 1 987.2
20260509141505 57 339 9.0 12.0 0.00 0.00 0.00 1 987.9
20260509141004 56 330 13.0 15.0 0.00 0.00 0.00 1 987.0
20260509140503 56 329 11.0 13.0 0.00 0.00 0.00 1 986.9
20260509140002 56 330 10.0 15.0 0.00 0.00 0.00 100 987.7
20260509135502 56 328 10.0 11.0 0.00 0.00 0.00 100 988.0
20260509135007 56 329 9.0 13.0 0.00 0.00 0.00 100 988.0
20260509134507 56 329 9.0 13.0 0.00 0.00 0.00 1 986.8
20260509134006 55 327 9.0 11.0 0.00 0.00 0.00 1 987.2
20260509133506 55 325 11.0 13.0 0.00 0.00 0.00 100 987.6
20260509133005 55 324 9.0 12.0 0.00 0.00 0.00 100 988.0
20260509132503 55 327 11.0 13.0 0.00 0.00 0.00 100 987.5
20260509132002 54 321 11.0 13.0 0.00 0.00 0.00 1 987.0
20260509131508 55 330 10.0 12.0 0.00 0.00 0.00 1 986.3
20260509131007 54 329 12.0 14.0 0.00 0.00 0.00 1 986.3
20260509130507 54 330 12.0 15.0 0.00 0.00 0.00 100 986.6
20260509130006 54 324 12.0 14.0 0.00 0.00 0.00 1 986.6
20260509125505 54 324 11.0 14.0 0.00 0.00 0.00 1 986.1
20260509125004 54 329 12.0 17.0 0.00 0.00 0.00 1 985.6
20260509124504 54 320 13.0 14.0 0.00 0.00 0.00 1 985.6
20260509124003 54 323 12.0 15.0 0.00 0.00 0.00 100 985.8
20260509123508 53 325 11.0 14.0 0.00 0.00 0.00 1 986.0
20260509123008 53 330 11.0 13.0 0.00 0.00 0.00 100 986.5
20260509122507 53 320 11.0 13.0 0.00 0.00 0.00 100 985.9
20260509122007 53 327 12.0 14.0 0.00 0.00 0.00 100 986.5
20260509121506 53 323 11.0 13.0 0.00 0.00 0.00 100 985.5
20260509121005 53 316 12.0 15.0 0.00 0.00 0.00 100 986.4
20260509120505 53 321 12.0 13.0 0.00 0.00 0.00 100 985.7
20260509115504 53 319 12.0 15.0 0.00 0.00 0.00 1 986.1
20260509115003 53 317 13.0 15.0 0.00 0.00 0.00 100 985.7
20260509114503 53 323 14.0 16.0 0.00 0.00 0.00 100 985.3
20260509114008 53 329 14.0 16.0 0.00 0.00 0.00 100 985.7
20260509113507 53 330 13.0 17.0 0.00 0.00 0.00 100 984.4
20260509113006 53 321 14.0 16.0 0.00 0.00 0.00 100 986.1
20260509112506 53 315 15.0 17.0 0.00 0.00 0.00 1 986.4
20260509112005 53 317 14.0 15.0 0.00 0.00 0.00 1 986.0
20260509111504 53 314 16.0 17.0 0.00 0.00 0.00 1 986.1
20260509111004 53 324 13.0 17.0 0.00 0.00 0.00 1 985.9
20260509110003 53 321 16.0 18.0 0.00 0.00 0.00 1 985.4
20260509105502 53 320 16.0 21.0 0.00 0.00 0.00 1 985.4
20260509104507 53 324 16.0 18.0 0.00 0.00 0.00 1 985.3
20260509104007 53 326 13.0 16.0 0.00 0.00 0.00 1 985.6
20260509103506 53 323 13.0 17.0 0.00 0.00 0.00 1 985.5
20260509103006 53 310 13.0 16.0 0.00 0.00 0.00 2 985.4
20260509102505 53 324 14.0 16.0 0.00 0.00 0.00 2 985.7
20260509102004 53 319 15.0 17.0 0.00 0.00 0.00 2 985.8
20260509101504 53 318 16.0 18.0 0.00 0.00 0.00 2 986.0
20260509101003 53 322 14.0 17.0 0.00 0.00 0.00 2 985.7
20260509100503 53 308 15.0 17.0 0.00 0.00 0.00 2 986.1
20260509100008 53 309 17.0 19.0 0.00 0.00 0.00 1 986.0
20260509095007 53 315 14.0 19.0 0.00 0.00 0.00 2 986.0
20260509094507 53 299 14.0 16.0 0.00 0.00 0.00 2 986.6
20260509094006 53 302 14.0 20.0 0.00 0.00 0.00 2 985.5
20260509093005 53 318 15.0 18.0 0.00 0.00 0.00 3 985.8
20260509092504 53 314 13.0 15.0 0.00 0.00 0.00 3 986.4
20260509092010 53 324 15.0 17.0 0.00 0.00 0.00 3 986.9
20260509091508 53 326 13.0 19.0 0.00 0.00 0.00 4 986.6
20260509091008 53 326 15.0 19.0 0.00 0.00 0.00 4 986.7
20260509090507 53 320 13.0 16.0 0.00 0.00 0.00 5 986.1
20260509090007 53 302 14.0 17.0 0.00 0.00 0.00 5 986.3
20260509085506 53 322 14.0 16.0 0.00 0.00 0.00 5 986.2
20260509085005 53 316 13.0 15.0 0.00 0.00 0.00 5 986.4
20260509084505 53 313 13.0 17.0 0.00 0.00 0.00 6 987.4
20260509084004 53 323 12.0 17.0 0.00 0.00 0.00 5 986.3
20260509083509 53 300 12.0 16.0 0.00 0.00 0.00 5 987.5
20260509083009 53 291 11.0 13.0 0.00 0.00 0.00 5 987.3
20260509082508 53 297 10.0 14.0 0.00 0.00 0.00 5 986.8
20260509082008 53 295 12.0 15.0 0.00 0.00 0.00 6 986.8
20260509081507 53 297 10.0 13.0 0.00 0.00 0.00 6 986.9
20260509081006 53 328 12.0 15.0 0.00 0.00 0.00 6 986.9
20260509080505 53 296 10.0 12.0 0.00 0.00 0.00 6 986.2
20260509080005 53 300 10.0 13.0 0.00 0.00 0.00 6 985.4
20260509075504 53 301 9.0 14.0 0.00 0.00 0.00 7 986.6
20260509075009 53 300 10.0 15.0 0.00 0.00 0.00 6 986.9
20260509074009 53 309 12.0 17.0 0.00 0.00 0.00 7 987.0
20260509073508 53 324 13.0 16.0 0.00 0.00 0.00 7 986.5
20260509073008 53 320 12.0 15.0 0.00 0.00 0.00 6 986.1
20260509072007 53 304 11.0 18.0 0.00 0.00 0.00 6 987.1
20260509071506 53 297 7.0 19.0 0.00 0.00 0.00 6 986.5
20260509071006 53 300 13.0 13.0 0.00 0.00 0.00 6 986.5
20260509070005 53 297 12.0 16.0 0.00 0.00 0.00 6 985.9
20260509065504 53 293 9.0 12.0 0.00 0.00 0.00 6 987.4
20260509064503 54 303 11.0 15.0 0.00 0.00 0.00 6 986.6
20260509064009 54 298 10.0 13.0 0.00 0.00 0.00 6 986.9
20260509063008 54 298 13.0 16.0 0.00 0.00 0.00 5 986.9
20260509062507 54 293 11.0 14.0 0.00 0.00 0.00 4 986.7
20260509062007 54 304 12.0 17.0 0.00 0.00 0.00 3 986.8
20260509061006 54 309 10.0 14.0 0.00 0.00 0.00 3 987.0
20260509060505 55 319 10.0 18.0 0.00 0.00 0.00 3 987.1
20260509060005 55 296 10.0 14.0 0.00 0.00 0.00 3 988.0
20260509055504 55 300 12.0 15.0 0.00 0.00 0.00 3 987.4
20260509054509 55 321 12.0 16.0 0.00 0.00 0.00 3 986.9
20260509054009 55 303 11.0 13.0 0.00 0.00 0.00 3 986.9
20260509053008 55 297 10.0 14.0 0.00 0.00 0.00 3 987.3
20260509052507 55 312 12.0 14.0 0.00 0.00 0.00 3 987.9
20260509052007 55 298 11.0 15.0 0.00 0.00 0.00 3 987.1
20260509051506 55 296 7.0 8.0 0.00 0.00 0.00 3 987.0
20260509050505 55 314 8.0 11.0 0.00 0.00 0.00 4 986.9
20260509050004 55 305 10.0 12.0 0.00 0.00 0.00 4 987.5
20260509045503 55 319 12.0 15.0 0.00 0.00 0.00 4 987.0
20260509045003 54 311 11.0 14.0 0.00 0.00 0.00 4 988.3
20260509044508 54 325 10.0 13.0 0.00 0.00 0.00 4 987.8
20260509044008 55 311 11.0 14.0 0.00 0.00 0.00 4 986.7
20260509043507 54 320 11.0 15.0 0.00 0.00 0.00 4 986.1
20260509043006 54 299 8.0 11.0 0.00 0.00 0.00 4 986.4
20260509042506 55 300 8.0 10.0 0.00 0.00 0.00 4 988.0
20260509042005 54 314 9.0 14.0 0.00 0.00 0.00 4 986.2
20260509041505 54 295 10.0 13.0 0.00 0.00 0.00 5 986.4
20260509041004 55 319 13.0 17.0 0.00 0.00 0.00 4 986.8
20260509040504 55 311 9.0 13.0 0.00 0.00 0.00 5 986.4
20260509040009 55 314 15.0 18.0 0.00 0.00 0.00 4 987.0
20260509035507 55 312 9.0 13.0 0.00 0.00 0.00 4 987.2
20260509035007 55 301 10.0 14.0 0.00 0.00 0.00 4 986.9
20260509034506 55 311 10.0 13.0 0.00 0.00 0.00 3 987.6
20260509034006 55 296 11.0 17.0 0.00 0.00 0.00 3 986.3
20260509033505 55 301 11.0 14.0 0.00 0.00 0.00 3 987.1
20260509033004 55 307 8.0 12.0 0.00 0.00 0.00 4 986.8
20260509032504 55 301 10.0 13.0 0.00 0.00 0.00 4 986.5
20260509032003 55 312 13.0 17.0 0.00 0.00 0.00 4 986.0
20260509031508 55 334 13.0 16.0 0.00 0.00 0.00 3 985.7
20260509031008 55 306 9.0 16.0 0.00 0.00 0.00 3 986.1
20260509030507 55 296 8.0 10.0 0.00 0.00 0.00 4 986.4
20260509030006 55 294 9.0 12.0 0.00 0.00 0.00 3 987.1
20260509025505 55 307 7.0 9.0 0.00 0.00 0.00 3 986.1
20260509025004 55 302 9.0 14.0 0.00 0.00 0.00 3 985.9
20260509024003 55 293 6.0 10.0 0.00 0.00 0.00 3 986.4
20260509023509 55 320 10.0 19.0 0.00 0.00 0.00 2 986.7
20260509023008 56 295 6.0 9.0 0.00 0.00 0.00 2 985.9
20260509022508 55 298 8.0 13.0 0.00 0.00 0.00 2 986.4
20260509022007 56 323 9.0 11.0 0.00 0.00 0.00 2 986.2
20260509021507 56 323 7.0 10.0 0.00 0.00 0.00 2 985.6
20260509020507 56 320 7.0 11.0 0.00 0.00 0.00 2 985.4
20260509020006 56 332 9.0 15.0 0.00 0.00 0.00 1 985.6
20260509015505 57 327 8.0 13.0 0.00 0.00 0.00 2 985.5
20260509014504 57 321 11.0 15.0 0.00 0.00 0.00 1 985.9
20260509014009 58 303 7.0 9.0 0.00 0.00 0.00 100 986.4
20260509013509 58 327 9.0 11.0 0.00 0.00 0.00 1 986.2
20260509013008 58 322 5.0 9.0 0.00 0.00 0.00 1 985.6
20260509012508 58 301 8.0 14.0 0.00 0.00 0.00 1 985.7
20260509012007 59 320 7.0 10.0 0.00 0.00 0.00 1 984.9
20260509011507 59 321 12.0 15.0 0.00 0.00 0.00 1 985.7
20260509011006 60 325 9.0 12.0 0.00 0.00 0.00 1 985.5
20260509010505 60 329 8.0 10.0 0.00 0.00 0.00 1 985.6
20260509010005 62 10 4.0 9.0 0.00 0.00 0.00 1 985.1
20260509005510 64 7 4.0 4.0 0.00 0.00 0.00 1 986.3
20260509005003 64 7 4.0 6.0 0.00 0.00 0.00 1 986.3
20260509004503 64 289 6.0 6.0 0.00 0.00 0.00 1 986.4
20260509004008 64 289 6.0 6.0 0.00 0.00 0.00 1 986.4
20260509003508 64 289 6.0 6.0 0.00 0.00 0.00 1 986.4
20260509003007 66 339 4.0 5.0 0.00 0.00 0.00 1 985.6
20260509002506 64 335 5.0 6.0 0.00 0.00 0.00 1 986.5
20260509002006 68 333 2.0 2.0 0.00 0.00 0.00 1 985.6
20260509001505 68 333 2.0 2.0 0.00 0.00 0.00 1 985.6
20260509001005 68 333 2.0 2.0 0.00 0.00 0.00 1 985.6
20260509000504 68 333 2.0 2.0 0.00 0.00 0.00 1 985.6
20260509000004 65 276 4.0 4.0 0.00 0.00 0.00 1 985.4
20260508235509 65 267 2.0 2.0 0.00 0.00 0.00 1 985.0
20260508235008 65 267 3.0 5.0 0.00 0.00 0.00 1 985.0
20260508234507 64 299 10.0 10.0 0.00 0.00 0.00 1 986.3
20260508234007 64 299 10.0 10.0 0.00 0.00 0.00 1 986.3
20260508233506 64 299 10.0 14.0 0.00 0.00 0.00 1 986.3
20260508233006 65 288 6.0 8.0 0.00 0.00 0.00 1 985.9
20260508232506 67 223 3.0 3.0 0.00 0.00 0.00 1 986.4
20260508232005 67 213 6.0 10.0 0.00 0.00 0.00 1 985.2
20260508231504 66 326 5.0 10.0 0.00 0.00 0.00 1 985.9
20260508231004 68 242 6.0 9.0 0.00 0.00 0.00 1 985.7
20260508230503 70 17 1.0 2.0 0.00 0.00 0.00 1 985.7
20260508230009 66 318 3.0 7.0 0.00 0.00 0.00 1 986.5
20260508225508 65 297 6.0 8.0 0.00 0.00 0.00 1 986.4
20260508225007 65 295 3.0 6.0 0.00 0.00 0.00 1 986.4
20260508224507 64 289 8.0 11.0 0.00 0.00 0.00 1 987.4
20260508224006 69 326 4.0 8.0 0.00 0.00 0.00 1 986.1
20260508223505 65 55 1.0 4.0 0.00 0.00 0.00 1 986.8
20260508223005 63 304 7.0 9.0 0.00 0.00 0.00 1 986.5
20260508222504 64 206 8.0 11.0 0.00 0.00 0.00 1 986.3
20260508222004 65 316 3.0 5.0 0.00 0.00 0.00 1 986.5
20260508221503 65 330 5.0 8.0 0.00 0.00 0.00 1 987.2
20260508221003 65 357 4.0 6.0 0.00 0.00 0.00 1 985.3
20260508220508 66 345 4.0 6.0 0.00 0.00 0.00 1 985.3
20260508220007 64 226 7.0 10.0 0.00 0.00 0.00 1 986.8
20260508215507 64 327 5.0 11.0 0.00 0.00 0.00 1 986.4
20260508215006 63 303 5.0 8.0 0.00 0.00 0.00 1 987.0
20260508214505 63 308 9.0 13.0 0.00 0.00 0.00 1 986.8
20260508214004 65 328 4.0 9.0 0.00 0.00 0.00 1 986.7
20260508213504 67 320 3.0 7.0 0.00 0.00 0.00 1 987.2
20260508213003 65 351 3.0 5.0 0.00 0.00 0.00 1 987.3
20260508212509 65 317 8.0 10.0 0.00 0.00 0.00 1 987.1
20260508212008 65 335 4.0 6.0 0.00 0.00 0.00 1 987.2
20260508211508 64 16 2.0 5.0 0.00 0.00 0.00 1 986.5
20260508211007 64 209 4.0 7.0 0.00 0.00 0.00 1 987.1
20260508210506 63 228 6.0 11.0 0.00 0.00 0.00 100 986.9
20260508205505 64 225 1.0 4.0 0.00 0.00 0.00 1 987.6
20260508205004 63 318 7.0 13.0 0.00 0.00 0.00 1 988.3
20260508204504 64 276 2.0 5.0 0.00 0.00 0.00 100 987.8
20260508204003 62 298 10.0 15.0 0.00 0.00 0.00 1 987.1
20260508203508 63 316 4.0 4.0 0.00 0.00 0.00 2 987.0
20260508203008 63 316 4.0 4.0 0.00 0.00 0.00 2 987.0
20260508202508 62 317 6.0 6.0 0.00 0.00 0.00 1 987.8
20260508202007 64 333 8.0 8.0 0.00 0.00 0.00 1 987.6
20260508201506 64 333 9.0 10.0 0.00 0.00 0.00 1 987.6
20260508201006 65 230 4.0 4.0 0.00 0.00 0.00 1 986.3
20260508200505 65 230 3.0 4.0 0.00 0.00 0.00 1 986.3
20260508200011 70 305 2.0 4.0 0.00 0.00 0.00 1 987.2
20260508195506 69 44 3.0 5.0 0.00 0.00 0.00 1 988.2
20260508195005 68 338 1.0 4.0 0.00 0.00 0.00 1 987.1
20260508194505 67 334 2.0 4.0 0.00 0.00 0.00 1 987.4
20260508194004 66 349 2.0 5.0 0.00 0.00 0.00 1 987.7
20260508193503 65 322 4.0 12.0 0.00 0.00 0.00 1 987.1
20260508193009 67 220 1.0 2.0 0.00 0.00 0.00 1 986.9
20260508192508 65 311 2.0 4.0 0.00 0.00 0.00 1 987.7
20260508192008 64 334 7.0 10.0 0.00 0.00 0.00 1 987.9
20260508191506 63 333 6.0 9.0 0.00 0.00 0.00 1 987.3
20260508191006 64 322 6.0 9.0 0.00 0.00 0.00 1 987.5
20260508190505 63 350 3.0 5.0 0.00 0.00 0.00 1 987.4
20260508190005 63 335 5.0 10.0 0.00 0.00 0.00 1 987.5
20260508185504 63 341 6.0 9.0 0.00 0.00 0.00 1 988.2
20260508185003 65 298 4.0 6.0 0.00 0.00 0.00 1 987.9
20260508184503 67 75 2.0 4.0 0.00 0.00 0.00 1 987.9
20260508184008 67 296 2.0 5.0 0.00 0.00 0.00 1 988.1
20260508183507 66 350 3.0 5.0 0.00 0.00 0.00 1 988.2
20260508183007 64 325 4.0 6.0 0.00 0.00 0.00 1 987.4
20260508182507 64 296 3.0 4.0 0.00 0.00 0.00 1 989.1
20260508182006 65 90 1.0 2.0 0.00 0.00 0.00 1 987.9
20260508181505 63 344 5.0 10.0 0.00 0.00 0.00 1 987.5
20260508181005 62 322 5.0 7.0 0.00 0.00 0.00 2 987.9
20260508180504 63 342 3.0 7.0 0.00 0.00 0.00 100 988.5
20260508180004 62 302 3.0 6.0 0.00 0.00 0.00 100 987.9
20260508175503 61 312 5.0 8.0 0.00 0.00 0.00 1 988.1
20260508175003 60 304 3.0 6.0 0.00 0.00 0.00 1 987.8
20260508174508 62 322 3.0 5.0 0.00 0.00 0.00 1 988.1
20260508174008 62 338 1.0 4.0 0.00 0.00 0.00 4 987.6
20260508173507 60 314 4.0 7.0 0.00 0.00 0.00 2 988.2
20260508173007 59 301 7.0 9.0 0.00 0.00 0.00 2 987.6
20260508172506 56 311 12.0 14.0 0.00 0.00 0.00 2 987.4
20260508172005 59 315 7.0 10.0 0.00 0.00 0.00 2 987.8
20260508171505 61 313 4.0 8.0 0.00 0.00 0.00 3 988.2
20260508171005 60 328 4.0 7.0 0.00 0.00 0.00 4 987.4
20260508170504 57 326 8.0 10.0 0.00 0.00 0.00 3 986.7
20260508170004 58 333 12.0 19.0 0.00 0.00 0.00 1 987.0
20260508165503 60 333 3.0 7.0 0.00 0.00 0.00 3 987.5
20260508165002 56 307 8.0 11.0 0.00 0.00 0.00 3 987.2
20260508164508 58 332 6.0 11.0 0.00 0.00 0.00 2 987.4
20260508164007 57 329 6.0 12.0 0.00 0.00 0.00 3 987.4
20260508163507 55 324 11.0 15.0 0.00 0.00 0.00 3 987.9
20260508163006 54 330 13.0 17.0 0.00 0.00 0.00 3 987.1
20260508162505 55 334 8.0 14.0 0.00 0.00 0.00 2 987.8
20260508161505 54 312 10.0 14.0 0.00 0.00 0.00 2 987.0
20260508161004 55 295 10.0 13.0 0.00 0.00 0.00 2 987.2